TimeEST,TemperatureF,Dew PointF,Humidity,Sea Level PressureIn,VisibilityMPH,Wind Direction,Wind SpeedMPH,Gust SpeedMPH,PrecipitationIn,Events,Conditions,WindDirDegrees,DateUTC
12:15 AM,35.6,15.8,44,29.91,10.0,West,8.1,-,N/A,,Clear,280,2013-02-13 05:15:00
12:35 AM,33.8,15.8,48,29.91,10.0,SW,4.6,-,N/A,,Clear,230,2013-02-13 05:35:00
12:55 AM,30.2,15.8,55,29.90,10.0,West,6.9,-,N/A,,Clear,260,2013-02-13 05:55:00
1:15 AM,35.6,15.8,44,29.88,10.0,West,4.6,-,N/A,,Clear,280,2013-02-13 06:15:00
1:35 AM,35.6,15.8,44,29.88,10.0,Calm,Calm,-,N/A,,Clear,0,2013-02-13 06:35:00
1:55 AM,35.6,14.0,41,29.87,10.0,Calm,Calm,-,N/A,,Scattered Clouds,0,2013-02-13 06:55:00
2:15 AM,35.6,15.8,44,29.86,10.0,West,4.6,-,N/A,,Mostly Cloudy,260,2013-02-13 07:15:00
2:35 AM,35.6,17.6,48,29.85,10.0,WSW,3.5,-,N/A,,Overcast,250,2013-02-13 07:35:00
2:55 AM,35.6,19.4,52,29.84,10.0,WSW,5.8,-,N/A,,Overcast,240,2013-02-13 07:55:00
3:15 AM,37.4,12.2,36,29.84,10.0,SSW,4.6,-,N/A,,Overcast,210,2013-02-13 08:15:00
3:35 AM,39.2,6.8,26,29.83,10.0,SW,4.6,-,N/A,,Overcast,220,2013-02-13 08:35:00
3:55 AM,37.4,8.6,30,29.83,10.0,WSW,4.6,-,N/A,,Overcast,240,2013-02-13 08:55:00
4:15 AM,37.4,6.8,28,29.82,10.0,Calm,Calm,-,N/A,,Overcast,0,2013-02-13 09:15:00
4:35 AM,35.6,12.2,38,29.81,10.0,SSE,3.5,-,N/A,,Overcast,160,2013-02-13 09:35:00
4:55 AM,35.6,12.2,38,29.81,10.0,SW,3.5,-,N/A,,Overcast,230,2013-02-13 09:55:00
5:15 AM,35.6,12.2,38,29.79,10.0,WNW,3.5,-,N/A,,Mostly Cloudy,290,2013-02-13 10:15:00
5:35 AM,35.6,12.2,38,29.79,10.0,WNW,3.5,-,N/A,,Scattered Clouds,300,2013-02-13 10:35:00
5:55 AM,37.4,12.2,36,29.77,10.0,Calm,Calm,-,N/A,,Scattered Clouds,0,2013-02-13 10:55:00
6:15 AM,35.6,12.2,38,29.78,10.0,SE,4.6,-,N/A,,Mostly Cloudy,130,2013-02-13 11:15:00
6:35 AM,35.6,15.8,44,29.77,10.0,ESE,4.6,-,N/A,,Overcast,110,2013-02-13 11:35:00
6:55 AM,35.6,15.8,44,29.77,10.0,SE,5.8,-,N/A,,Overcast,130,2013-02-13 11:55:00
7:15 AM,35.6,15.8,44,29.77,10.0,SE,5.8,-,N/A,,Overcast,140,2013-02-13 12:15:00
7:35 AM,35.6,15.8,44,29.76,10.0,ESE,6.9,-,N/A,,Overcast,120,2013-02-13 12:35:00
7:55 AM,35.6,15.8,44,29.76,10.0,SE,6.9,-,N/A,,Overcast,130,2013-02-13 12:55:00
8:15 AM,35.6,15.8,44,29.75,10.0,ESE,6.9,-,N/A,,Overcast,110,2013-02-13 13:15:00
8:35 AM,35.6,15.8,44,29.74,10.0,ESE,9.2,-,N/A,,Overcast,110,2013-02-13 13:35:00
8:55 AM,33.8,15.8,48,29.72,10.0,East,9.2,-,N/A,,Mostly Cloudy,100,2013-02-13 13:55:00
9:15 AM,33.8,15.8,48,29.72,10.0,East,12.7,-,N/A,,Overcast,100,2013-02-13 14:15:00
9:35 AM,33.8,17.6,52,29.72,10.0,ESE,10.4,-,N/A,,Overcast,110,2013-02-13 14:35:00
9:55 AM,33.8,17.6,52,29.71,10.0,SE,12.7,-,N/A,,Overcast,130,2013-02-13 14:55:00
10:15 AM,33.8,21.2,60,29.70,4.0,ESE,15.0,20.7,N/A,Snow,Light Snow,120,2013-02-13 15:15:00
10:35 AM,33.8,21.2,60,29.69,10.0,ESE,12.7,19.6,N/A,,Overcast,120,2013-02-13 15:35:00
10:55 AM,33.8,21.2,60,29.69,10.0,ESE,10.4,18.4,N/A,Snow,Light Snow,110,2013-02-13 15:55:00
11:15 AM,33.8,21.2,60,29.69,10.0,SE,10.4,-,N/A,,Overcast,130,2013-02-13 16:15:00
11:35 AM,32.0,24.8,75,29.70,4.0,ESE,9.2,-,N/A,,Overcast,110,2013-02-13 16:35:00
11:55 AM,30.2,28.4,93,29.67,2.5,ESE,8.1,-,N/A,Snow,Light Snow,120,2013-02-13 16:55:00
12:15 PM,28.4,28.4,100,29.65,3.0,ESE,10.4,16.1,N/A,Snow,Light Snow,120,2013-02-13 17:15:00
12:35 PM,28.4,28.4,100,29.64,5.0,ESE,9.2,-,0.01,Snow,Light Snow,110,2013-02-13 17:35:00
12:55 PM,28.4,28.4,100,29.63,3.0,ESE,10.4,-,N/A,Snow,Light Snow,110,2013-02-13 17:55:00
1:15 PM,28.4,28.4,100,29.61,0.2,ESE,9.2,-,N/A,Snow,Light Snow,110,2013-02-13 18:15:00
1:35 PM,28.4,28.4,100,29.59,0.2,East,8.1,-,N/A,,Overcast,100,2013-02-13 18:35:00
1:55 PM,28.4,28.4,100,29.58,0.2,ESE,6.9,-,N/A,,Overcast,110,2013-02-13 18:55:00
2:15 PM,28.4,28.4,100,29.59,0.2,East,6.9,-,N/A,,Overcast,90,2013-02-13 19:15:00
2:35 PM,28.4,28.4,100,29.57,0.2,East,5.8,-,0.01,,Overcast,90,2013-02-13 19:35:00
2:55 PM,28.4,28.4,100,29.57,0.2,East,8.1,-,N/A,Snow,Light Snow,90,2013-02-13 19:55:00
3:15 PM,28.4,28.4,100,29.56,0.2,East,5.8,-,N/A,Snow,Light Snow,90,2013-02-13 20:15:00
3:35 PM,28.4,28.4,100,29.56,0.2,ESE,5.8,-,N/A,,Overcast,110,2013-02-13 20:35:00
3:55 PM,28.4,28.4,100,29.56,0.2,ESE,4.6,-,N/A,Snow,Light Snow,110,2013-02-13 20:55:00
4:15 PM,30.2,30.2,100,29.56,0.2,East,5.8,-,0.01,Snow,Light Snow,100,2013-02-13 21:15:00
4:55 PM,30.2,30.2,100,29.56,0.2,SSE,5.8,-,0.01,Snow,Light Snow,160,2013-02-13 21:55:00
5:15 PM,30.2,30.2,100,29.57,0.5,SSW,5.8,-,0.02,Snow,Light Snow,210,2013-02-13 22:15:00
5:35 PM,30.2,30.2,100,29.59,0.2,WNW,5.8,-,0.03,Snow,Light Snow,290,2013-02-13 22:35:00
5:55 PM,28.4,28.4,100,29.60,0.2,NW,6.9,-,0.01,,Overcast,320,2013-02-13 22:55:00
6:15 PM,28.4,28.4,100,29.61,0.2,West,9.2,-,0.01,Snow,Light Snow,280,2013-02-13 23:15:00
6:35 PM,28.4,28.4,100,29.61,0.2,West,12.7,-,0.01,Snow,Snow,280,2013-02-13 23:35:00
6:55 PM,30.2,30.2,100,29.63,0.2,West,13.8,19.6,N/A,Snow,Light Snow,280,2013-02-13 23:55:00
7:15 PM,28.4,28.4,100,29.64,0.2,West,16.1,23.0,N/A,,Overcast,280,2013-02-14 00:15:00
7:35 PM,28.4,28.4,100,29.65,0.2,WNW,15.0,-,N/A,Snow,Light Snow,290,2013-02-14 00:35:00
7:55 PM,28.4,28.4,100,29.66,5.0,WNW,15.0,20.7,N/A,,Overcast,290,2013-02-14 00:55:00
8:15 PM,28.4,28.4,100,29.67,1.2,West,19.6,25.3,N/A,,Overcast,280,2013-02-14 01:15:00
8:35 PM,28.4,28.4,100,29.67,10.0,WNW,15.0,24.2,N/A,,Overcast,290,2013-02-14 01:35:00
8:55 PM,26.6,26.6,100,29.68,10.0,West,16.1,24.2,N/A,,Overcast,280,2013-02-14 01:55:00
9:15 PM,26.6,26.6,100,29.69,7.0,West,11.5,20.7,N/A,,Overcast,280,2013-02-14 02:15:00
9:35 PM,26.6,26.6,100,29.70,5.0,West,16.1,21.9,N/A,,Overcast,280,2013-02-14 02:35:00
9:55 PM,26.6,26.6,100,29.70,1.0,West,16.1,21.9,N/A,,Overcast,280,2013-02-14 02:55:00
10:15 PM,26.6,26.6,100,29.71,0.2,WNW,12.7,18.4,N/A,,Overcast,300,2013-02-14 03:15:00
10:35 PM,26.6,26.6,100,29.71,0.2,WNW,12.7,18.4,N/A,,Overcast,290,2013-02-14 03:35:00
10:55 PM,26.6,26.6,100,29.72,0.2,WNW,17.3,20.7,N/A,,Overcast,290,2013-02-14 03:55:00
11:15 PM,26.6,26.6,100,29.72,0.5,WNW,20.7,28.8,N/A,,Overcast,290,2013-02-14 04:15:00
11:35 PM,26.6,26.6,100,29.72,0.2,WNW,20.7,29.9,N/A,,Overcast,290,2013-02-14 04:35:00
11:55 PM,26.6,26.6,100,29.73,0.2,WNW,19.6,23.0,N/A,,Overcast,290,2013-02-14 04:55:00